RH
28 25 24 24 27 28 30 32 31 27 23 23 19 15 16 22 33 38 39 40 40 39 32 29 27 25 23 26 29 32 37 38 37 37 49 53 56 57 64 61 72 80 98
36 37 36 36 35 34 34 33 29 27 28 29 28 29 35 39 43 40 40 24 20 20 22 23 21 20 25 30 29 34 41 41 39 48 55 64 63 61 68 64 72 76 87
48 44 41 39 38 38 37 36 30 32 36 36 37 38 38 30 28 19 16 19 20 19 20 20 18 22 34 39 33 34 46 50 46 48 54 58 48 57 68 56 69 69 75
43 40 39 39 38 39 41 40 34 35 37 40 41 35 22 20 16 17 16 15 15 16 17 18 23 30 37 45 45 41 49 50 48 50 55 60 60 59 62 59 61 69 76
45 42 38 38 42 43 43 44 41 40 43 43 29 22 19 17 18 19 23 26 28 35 39 44 50 50 48 52 52 49 49 28 21 13 10 10 6 8 14 32 51 51 58
44 44 44 44 46 47 46 46 47 45 43 28 22 19 19 21 25 35 41 36 27 33 42 41 14 8 6 10 8 11 14 6 4 4 3 3 3 3 3 4 4 6 8
42 41 42 44 48 49 48 49 46 39 27 23 24 29 26 34 46 44 26 19 17 13 11 8 6 6 7 7 7 7 7 6 6 7 8 7 5 4 3 3 3 2 2
42 39 42 45 48 49 46 40 32 32 38 48 45 36 48 50 40 24 21 19 15 13 12 12 13 14 15 14 13 12 11 12 14 13 10 7 5 4 3 3 3 3 3
40 35 39 42 44 43 42 40 41 44 48 46 48 47 40 28 23 22 20 17 16 15 18 20 22 23 24 22 20 18 19 19 16 12 7 4 4 4 3 3 3 3 3
36 31 28 31 29 27 30 32 36 39 39 36 30 27 25 23 24 22 20 20 22 24 26 28 31 32 32 30 24 21 20 16 11 6 4 4 4 4 4 4 4 4 4
33 26 24 22 23 25 27 26 29 28 28 27 25 24 25 26 24 24 25 27 30 32 32 33 34 35 34 31 25 21 16 10 6 5 4 4 5 6 6 6 6 6 6
35 27 24 23 26 26 28 28 28 27 26 25 26 27 28 29 30 31 33 34 32 33 35 35 35 37 34 28 20 15 10 6 5 5 5 7 8 8 8 8 8 8 9
45 33 27 24 26 28 29 30 29 29 28 28 29 32 33 34 34 34 32 32 34 35 37 38 39 36 29 20 14 10 7 6 5 7 9 10 11 12 12 13 14 15 18
60 44 31 28 27 28 30 30 31 31 31 31 33 34 35 35 34 31 31 32 33 37 40 41 39 32 22 13 10 8 7 7 8 11 13 14 14 16 18 20 22 24 28
78 62 45 34 30 29 30 30 31 31 31 32 33 35 36 35 33 31 32 32 34 38 41 44 42 30 20 11 9 8 8 9 11 14 16 16 17 19 22 26 30 35 38
94 88 69 54 43 35 31 30 31 32 32 33 33 34 36 36 34 33 32 33 34 41 45 45 47 37 21 12 10 9 8 10 14 17 19 19 19 20 24 33 36 40 42
99 98 95 87 72 53 42 36 33 32 32 33 33 34 35 36 36 35 35 35 36 44 54 50 49 44 26 15 12 11 12 13 16 20 22 21 20 21 26 35 42 49 60
97 92 92 95 95 99 98 86 63 45 36 35 34 34 34 35 36 37 38 37 38 48 61 53 44 52 39 22 16 13 14 18 22 24 25 23 22 22 27 35 44 48 54
100 99 98 97 97 94 99 99 99 99 88 72 61 54 47 37 36 38 39 40 40 51 60 61 42 51 56 37 22 17 20 24 26 29 28 24 24 24 28 34 41 48 50
98 100 99 99 99 95 96 98 100 97 95 97 98 96 92 87 60 45 40 40 41 52 65 68 48 45 61 61 35 21 25 29 31 31 29 26 26 26 29 34 39 41 46
100 100 100 99 99 98 98 97 97 97 97 97 97 97 99 97 95 79 53 48 44 54 71 69 64 55 60 86 72 34 29 34 35 33 29 28 28 29 33 35 37 40 42
99 100 99 98 99 99 98 98 98 98 98 98 97 96 96 97 96 95 93 92 80 73 83 85 90 94 94 91 76 38 33 36 37 34 30 28 29 31 33 34 34 36 38
91 90 92 96 99 100 100 100 98 98 97 97 97 97 96 97 97 97 97 95 91 90 94 90 94 95 93 94 82 48 35 36 38 35 30 29 30 31 32 33 36 40 46
90 97 100 99 100 98 98 98 99 98 98 97 98 97 97 96 98 98 95 96 95 95 94 92 94 91 94 90 72 41 36 37 38 34 29 28 28 30 32 39 52 61 65
86 100 100 100 100 99 98 97 97 97 97 97 97 97 96 96 96 95 96 95 95 94 95 95 94 93 89 80 45 37 40 40 39 33 29 28 29 33 48 58 62 61 60
71 81 100 100 98 98 97 97 97 97 97 97 96 96 96 96 96 96 97 95 93 94 95 97 95 93 92 79 44 40 42 41 38 32 29 30 38 49 54 54 51 50 52
Wind_Speed
28 29 31 31 32 32 32 31 30 30 28 27 26 25 24 23 23 25 26 27 28 29 30 28 27 26 25 27 25 26 28 30 30 29 30 32 32 31 31 29 31 27 25
27 27 29 30 30 31 30 29 28 26 25 24 23 23 23 24 25 24 23 23 22 22 23 21 22 24 25 24 24 25 27 27 26 26 29 33 31 30 25 22 22 25 23
26 26 27 29 28 28 28 27 26 25 23 23 24 23 23 22 20 19 18 18 18 19 20 22 24 24 25 24 25 25 25 25 26 30 31 26 19 22 19 20 20 22 23
25 27 27 27 28 28 27 26 25 24 24 23 22 21 19 16 15 15 16 17 18 19 21 23 25 26 26 26 26 24 24 22 20 20 21 21 20 20 20 22 22 24 25
23 25 26 26 26 26 25 25 24 23 22 20 18 17 14 14 14 14 15 16 17 18 19 19 17 16 18 18 16 16 14 12 16 20 21 22 23 21 20 21 22 23 23
21 21 22 22 22 21 20 20 20 19 18 16 14 13 13 12 12 12 12 9 9 9 8 6 8 11 13 13 13 14 16 19 22 23 24 24 25 25 25 26 26 26 28
19 18 18 18 17 17 16 15 15 15 13 13 13 12 11 11 9 6 6 7 8 9 9 10 13 14 16 17 19 20 20 21 23 24 24 25 26 26 27 28 28 29 29
17 15 13 13 13 13 13 13 12 13 13 10 9 9 8 5 5 7 8 9 10 11 12 13 15 16 18 19 21 22 22 23 24 25 26 26 26 27 27 27 28 29 29
14 13 12 9 8 8 9 10 10 9 8 8 6 5 5 6 7 8 10 11 12 14 15 17 18 19 20 21 22 23 24 24 24 24 25 26 26 27 26 26 27 28 28
12 11 8 7 7 6 6 6 7 8 8 6 6 6 7 7 8 10 12 13 15 17 19 20 20 21 22 21 23 23 24 25 25 25 24 25 24 25 26 26 26 26 27
11 10 8 7 6 6 7 7 7 7 6 7 7 8 9 10 10 11 14 17 18 19 21 22 23 23 23 22 22 23 24 25 24 24 25 24 24 25 25 26 27 27 26
11 10 9 8 8 8 7 8 7 6 7 8 9 10 11 12 11 13 14 17 20 21 22 23 24 24 23 23 23 24 24 24 24 24 23 24 25 25 26 26 26 25 24
12 12 11 10 10 9 8 10 9 9 10 11 12 12 13 12 13 16 16 17 19 21 23 24 24 23 23 23 23 23 24 24 24 23 24 24 25 25 25 25 25 23 23
14 13 13 12 11 10 11 12 12 12 13 14 14 15 14 15 16 18 19 19 19 21 23 23 23 23 22 22 23 23 23 23 23 24 25 25 25 25 25 25 24 24 22
15 15 15 14 13 13 13 14 14 15 16 15 16 16 16 17 18 19 20 21 21 21 23 24 24 24 23 22 22 22 23 24 25 25 25 26 27 26 26 26 26 24 23
14 16 16 16 15 15 16 17 17 18 17 18 18 18 18 19 20 21 22 22 22 22 23 24 24 24 24 23 23 24 25 25 26 26 26 27 28 28 27 27 28 28 26
14 15 16 16 17 19 19 19 20 20 20 20 20 21 21 21 21 22 23 23 23 24 25 26 25 25 24 24 24 25 27 27 27 27 28 29 29 29 29 28 29 30 29
16 15 15 17 18 20 20 21 21 21 21 22 23 23 23 23 24 24 25 25 25 25 27 27 26 25 25 25 26 26 27 28 29 29 30 30 31 31 29 29 30 30 31
26 27 24 21 22 22 23 23 21 22 22 24 24 25 26 26 27 27 27 26 26 27 27 27 26 26 26 27 28 28 28 28 30 31 31 32 32 33 31 31 31 31 32
27 28 29 28 30 29 28 27 25 24 25 26 27 29 29 29 29 30 29 27 27 27 27 28 28 27 27 28 29 29 29 29 30 32 32 32 33 33 32 32 32 32 32
29 29 31 33 35 35 36 33 29 31 32 29 27 29 31 31 32 31 30 29 27 28 28 28 29 30 30 32 29 29 29 29 31 33 33 33 34 33 33 34 34 34 34
23 26 31 34 36 32 32 36 37 37 36 36 32 29 31 31 34 33 34 31 29 29 30 32 35 36 34 33 29 29 29 30 32 34 34 34 33 33 34 34 34 34 34
27 28 29 34 33 33 36 34 34 35 34 33 32 32 34 33 33 34 33 32 29 33 32 33 34 32 33 31 28 29 30 31 33 34 34 33 32 33 33 33 33 33 34
32 33 33 33 32 31 33 30 31 33 34 33 33 35 34 31 30 32 34 32 31 30 29 33 32 31 29 28 28 30 31 32 34 35 35 35 33 33 34 34 33 34 35
23 30 34 33 31 32 30 30 30 31 32 34 35 32 29 29 30 31 31 31 29 26 29 32 32 30 29 28 28 29 30 33 35 36 36 35 34 34 34 35 35 36 37
23 22 25 30 30 29 30 31 32 32 31 30 29 29 27 25 25 26 27 25 25 26 28 29 29 30 29 28 30 30 32 34 36 37 37 37 36 36 37 38 38 40 39
Wind_Direction
262 265 269 270 271 272 273 274 275 275 277 279 279 279 278 278 280 280 279 278 278 279 280 280 281 283 288 292 294 296 297 298 299 301 307 308 302 294 302 297 302 292 300
267 269 269 271 272 272 271 271 271 274 278 278 278 278 278 281 283 282 281 282 282 281 279 278 280 285 290 288 289 293 298 297 297 303 306 308 300 296 300 305 310 304 308
275 273 272 272 273 272 269 267 269 271 272 280 282 281 282 283 282 283 285 287 287 284 284 285 288 287 288 291 288 288 297 298 295 299 302 309 304 310 289 305 299 309 312
280 278 275 276 277 272 267 264 265 268 272 280 281 282 280 280 283 287 292 294 294 293 292 288 288 288 290 289 291 290 292 295 299 313 309 308 313 311 302 299 298 300 303
287 284 280 277 277 270 265 262 263 267 271 273 276 274 276 279 285 293 298 298 296 296 295 293 293 298 300 298 296 296 293 296 307 307 309 308 310 312 309 304 299 300 300
292 293 286 279 273 268 263 261 258 260 263 266 264 266 270 278 284 289 294 299 310 316 316 319 315 310 321 322 316 304 298 305 309 312 313 312 313 313 312 308 303 299 295
291 292 288 279 271 265 260 254 252 253 254 255 259 266 269 272 280 272 280 297 303 307 306 308 309 313 315 312 308 306 308 311 311 313 314 313 312 311 310 308 307 303 299
284 292 298 285 270 262 255 250 247 247 245 248 249 249 252 249 254 273 285 293 293 295 299 305 309 312 312 311 308 308 311 312 310 310 309 310 311 310 310 309 308 306 304
282 284 285 289 278 262 249 239 232 226 216 217 208 205 225 245 265 281 287 291 294 299 304 307 309 309 307 306 305 306 308 308 308 309 309 310 310 310 311 311 312 310 309
275 273 270 262 252 245 227 210 200 193 188 193 210 223 237 253 272 284 294 296 301 303 306 307 307 307 306 306 306 307 309 309 310 310 310 310 311 312 314 315 313 312 311
265 261 252 241 230 232 238 228 207 204 208 220 230 246 257 269 276 290 297 301 304 306 308 309 310 310 310 309 307 308 309 310 311 311 312 313 313 314 315 315 314 313 311
251 251 246 239 235 229 234 244 240 235 238 245 254 260 269 275 289 295 299 303 308 311 312 312 311 311 311 310 309 309 311 312 312 312 312 313 314 315 315 315 313 311 309
247 246 244 238 239 241 240 246 250 251 254 260 264 269 276 289 296 295 297 303 307 311 313 314 313 312 312 311 311 314 315 314 313 313 313 313 314 314 314 314 312 311 308
244 243 242 239 242 247 250 251 252 256 260 263 270 275 284 289 293 294 300 304 309 315 317 318 316 314 312 312 313 315 314 313 313 313 313 314 314 314 313 312 310 308 306
244 244 245 245 243 248 252 256 259 259 263 266 270 276 282 287 290 295 299 305 312 318 320 320 318 315 313 312 312 312 313 313 313 313 314 314 313 314 312 310 306 302 301
247 245 248 250 252 253 254 257 258 262 265 268 272 277 280 284 289 293 297 302 307 314 320 319 317 314 312 312 312 312 311 312 312 312 313 312 312 313 312 308 305 303 302
258 253 251 251 254 254 256 260 261 264 267 270 274 277 280 284 287 291 294 300 304 310 317 318 316 314 312 311 311 310 311 312 311 311 311 311 313 313 312 308 304 302 301
260 261 260 258 261 257 259 260 263 267 269 272 274 277 280 283 286 289 293 297 301 306 314 315 314 313 311 310 309 309 310 310 311 311 312 314 314 313 312 308 304 302 300
257 258 258 256 260 264 267 269 266 266 269 272 277 279 281 282 285 287 290 294 297 301 310 311 311 312 312 310 308 309 310 310 310 311 313 314 313 313 312 308 306 304 301
256 260 264 263 263 269 265 264 264 269 270 273 277 279 282 283 283 284 287 291 293 297 305 309 308 308 309 310 309 309 310 309 310 311 313 313 311 310 309 307 306 304 302
258 262 265 265 267 265 262 268 263 270 270 274 275 279 280 282 281 281 284 287 290 295 299 304 304 303 304 308 305 307 307 307 308 310 311 311 310 310 308 309 309 307 305
267 268 267 263 266 272 274 271 263 262 268 272 276 283 283 283 282 280 280 280 284 287 292 297 303 302 305 305 303 306 307 307 309 310 311 311 311 309 308 308 307 306 306
268 268 270 267 272 271 269 272 271 271 264 270 273 278 282 281 282 284 282 280 280 282 290 301 308 306 305 301 301 304 306 307 309 309 309 310 310 308 306 306 306 307 306
271 271 271 273 274 274 268 269 270 269 269 266 270 276 281 282 284 282 282 283 283 290 296 302 306 306 304 301 303 305 306 308 310 311 310 310 309 307 307 308 309 308 307
283 269 266 269 270 270 273 270 269 271 269 266 272 277 277 277 280 284 288 288 292 297 301 302 304 303 304 305 305 304 305 308 311 310 308 307 308 309 309 308 308 307 307
287 290 272 264 266 269 271 271 270 271 271 271 272 272 274 278 288 294 292 288 289 291 293 298 300 302 303 306 307 307 308 310 311 309 308 309 311 312 312 312 312 311 312